Location: Newark
(48.1281°N, 2.1556°W)
Time: 11:58:36
(UTC+00:00)

Envisat - Pass Details

Date: 29 November 2019
Orbit: 764 x 766 km, 98.1° (Epoch: 12 December)

Event Time Altitude Azimuth Distance (km) Brightness Sun altitude
Rises 06:26:50 0° 20° (NNE) 3,243 6.3 -11.0°
Reaches altitude 10° 06:29:18 10° 28° (NNE) 2,312 5.6 -10.6°
Maximum altitude 06:34:04 39° 97° (E) 1,141 4.6 -9.9°
Drops below altitude 10° 06:38:47 10° 166° (SSE) 2,295 6.0 -9.1°
Sets 06:41:13 0° 174° (S) 3,217 6.6 -8.8°
